User: anonymous   Login
Location: Unspecified
(0.0000°N, 0.0000°E)
Time: 17:49:57
(UTC+00:00)
Language:

NAVSTAR 65 (USA 213) - Orbit

View from above orbital plane
View from above orbital plane
View from above satellite
View from above satellite

Ground track
Ground track

The orbit data is extracted from the following two-line orbital elements,

1 36585U 10022A   14326.64764609 -.00000047  00000-0  00000+0 0  7876
2 36585 056.0029 017.7527 0036735 036.4016 075.5361 02.00553691 32872
Epoch (UTC): 22 November 2014 15:32:36
Eccentricity: 0.0036735
inclination: 56.0029°
perigee height: 20085 km
apogee height: 20280 km
right ascension of ascending node: 17.7527°
argument of perigee: 36.4016°
revolutions per day: 2.00553691
mean anomaly at epoch: 75.5361°
orbit number at epoch: 3287

The dashed part of the orbit path shows where the satellite is in the earth's shadow,  

DLR